Location: Beuvrequen
(50.8014°N, 1.6652°E)
Time: 22:03:41
(UTC+00:00)

SL-16 R/B - Pass Details

Date: 16 October 2021
Orbit: 842 x 846 km, 71.0° (Epoch: 05 December)

Event Time Altitude Azimuth Distance (km) Brightness Sun altitude
Rises 19:46:41 0° 201° (SSW) 3,388 5.4 -27.0°
Reaches altitude 10° 19:49:07 10° 199° (SSW) 2,458 4.6 -27.4°
Enters shadow 19:51:04 22° 197° (SSW) 1,747 3.8 -27.7°
